Main page
METAR-TAF:

METAR-TAF

Airports :

Oil platform

Troll A, Norway

latitude: 60-38-42N, longitude: 3-43-29E, elevation: 20 m

Current weather observation

The report was made 39 minutes ago, at 21:50 UTC
Wind 4 kt from the West/Southwest
Temperature 2°C
Humidity 64%
Pressure 1009 hPa
Visibility 10 km or more

METAR: ENQA 272150Z AUTO 24004KT 9999NDV NCD 02/M04 Q1009 W03/S4

Time: 23:29 (22:29 UTC)


TAF: missing

Weather observations and forecasts of more than 4000 airports (METAR and TAF reports).

The available stations are represented by yellow and red dots on the map.

Hover mouse over dot to see the name of the station.

Then click to see weather observations and forecasts.

To change the map : click on the green buttons with a black cross to zoom in, on the green button with a dash to zoom out, or on the green arrows for adjacent maps.


METAR-TAF: